Regional Weather Roundup
Issued by NWS

Home | Current Version | Previous Version | Text Only | Print | Product List | Glossary On
Versions: 1 2 3 4 5 6 7 8 9 10 11 12 13 14 15 16 17 18 19 20 21 22 23 24 25 26 27 28 29 30 31 32 33 34 35 36 37 38 39 40 41 42 43 44 45 46 47 48 49 50
000
ASUS43 KBIS 220602
RWRND

NORTH DAKOTA REGIONAL WEATHER ROUNDUP
NATIONAL WEATHER SERVICE BISMARCK ND
100 AM CDT TUE AUG 22 2017

NOTE: "FAIR" INDICATES FEW OR NO CLOUDS BELOW 12,000 FEET WITH NO
SIGNIFICANT WEATHER AND/OR OBSTRUCTIONS TO VISIBILITY.


NDZ001>003-009>011-017-220700-
NORTHWEST NORTH DAKOTA

CITY           SKY/WX    TMP DP  RH WIND       PRES   REMARKS
WILLISTON      CLEAR     45  36  70 CALM      30.17R
6HR MIN TEMP:  45; 6HR MAX TEMP:  75;

MINOT          CLEAR     53  42  66 SW9       30.12R
MINOT AFB      CLEAR     47  41  78 W9        30.10S
$$

NDZ018>021-031>035-040>046-220700-
SOUTHWEST NORTH DAKOTA

CITY           SKY/WX    TMP DP  RH WIND       PRES   REMARKS
BISMARCK       CLEAR     53  46  77 W6        30.14R
6HR MIN TEMP:  53; 6HR MAX TEMP:  74;

DICKINSON      CLEAR     54  38  54 NW7       30.17R
GARRISON         N/A     47  42  83 NW8       30.13R
6HR MIN TEMP:  46; 6HR MAX TEMP:  72;

HETTINGER ARPT CLOUDY    46  40  79 CALM      30.20R
$$

NDZ004>008-012>016-024-026-027-054-220700-
NORTHEAST NORTH DAKOTA

CITY           SKY/WX    TMP DP  RH WIND       PRES   REMARKS
GRAND FORKS    CLEAR     53  52  96 W7        29.99S
GRND FRKS AFB  CLEAR     50  47  89 W8        30.00S
DEVILS LAKE    CLEAR     53  46  77 NW9       30.06S
$$

NDZ022-023-025-028>030-036>039-047>053-220700-
SOUTHEAST NORTH DAKOTA

CITY           SKY/WX    TMP DP  RH WIND       PRES   REMARKS
FARGO          CLEAR     57  53  86 NW6       30.00R
6HR MIN TEMP:  55; 6HR MAX TEMP:  73;

JAMESTOWN      CLEAR     52  46  80 W7        30.07R
$$





USA.gov is the U.S. government's official web portal to all federal, state and local government web resources and services.